Starlink 32751

operational
NORAD ID: 62753 Int'l Des: 2025-014 Owner: SPXS Country: US Constellation: starlink
LEOCIRCULAR

关于 Starlink 32751

正在加载描述...

实时位置

正在加载3D地球...

即将过境

高度历史

Altitude vs Time

uPlot chart will show altitude changes over time

两行轨道根数

1 62753U 25014U 25352.15224549 .00025998 00000-0 95118-3 0 9994
2 62753 43.0010 255.1830 0002074 269.7108 90.3506 15.27571021 50787
Epoch: Dec 18, 2025 • Age: 21 hours

当前状态

高度 487.5 km
速度 7.63 km/s
星下点 43.01°N, 119.9°W
发射日期 Jan 21, 2025
运行时间 0.9 years
类型 internet

技术详情

分类 Payload
质量 730.00 kg
干质量 700.00 kg
总质量 730.00 kg
长度 0.30 m
直径 4.10 m
跨度 29.00 m
形状 Box + pan
制造商 SPXS
平台类型 Starlink V2M
阶段状态 In Orbit
所有者/国家 SPXS/US

大型星座

Loading constellations...